Oakes, ND

3:58 PM CDT on September 20, 2017 (GMT -0500)
Oakes

Weather History for K2D5 - October, 2012

Change the Weather History Date:

Friday, October 12, 2012

  Actual Average (KP67) Record (KP67)
Temperature  
Mean Temperature 36 °F -  
Max Temperature 53 °F 62 °F 82 °F (1996)
Min Temperature 19 °F 37 °F 37 °F (1997)
Degree Days  
Heating Degree Days 29    
Moisture  
Dew Point 19 °F    
Average Humidity 62    
Maximum Humidity 100    
Minimum Humidity 22    
Precipitation  
Precipitation 0.00 in - - ()
Sea Level Pressure  
Sea Level Pressure 30.20 in    
Wind  
Wind Speed 10 mph (SSE)    
Max Wind Speed 29 mph    
Max Gust Speed 39 mph    
Visibility 10 miles    
Events      
Averages and records for this station are not official NWS values.
T = Trace of Precipitation, MM = Missing Value Source: NWS Daily Summary

Daily Weather History Graph

Daily Weather History Graph

Search for Another Location

Airport or City:

Trip Planner

Search our weather history database for the weather conditions in past years. The results will help you decide how hot, cold, wet, or windy it might be!

Date:

Astronomy

Oct. 12, 2012 Rise Set
Actual Time 7:46 AM CDT 6:50 PM CDT
Civil Twilight 7:15 AM CDT 7:20 PM CDT
Nautical Twilight 6:41 AM CDT 7:55 PM CDT
Astronomical Twilight 6:06 AM CDT 8:29 PM CDT
Moon 4:21 AM CDT (10/12) 5:08 PM CDT (10/12)
Length of Visible Light 12h 04m
Length of Day
11h 04m
Waning Crescent, 10% of the Moon is Illuminated
Oct 12
Waning Crescent
Oct 15
New
Oct 21
First Quarter
Oct 29
Full
Nov 6
Last Quarter

Hourly Weather History & Observations

Time (CDT) Temp. Windchill Dew Point Humidity Pressure Visibility Wind Dir Wind Speed Gust Speed Precip Events Conditions
12:35 AM 23.0 °F - 17.6 °F 80% 30.39 in 9.0 mi Calm Calm - N/A   Unknown
12:55 AM 23.0 °F 18.4 °F 17.6 °F 80% 30.39 in 8.0 mi SSE 3.5 mph - N/A   Unknown
1:15 AM 21.2 °F 14.9 °F 17.6 °F 86% 30.39 in 9.0 mi SSE 4.6 mph - N/A   Unknown
1:35 AM 21.2 °F 13.6 °F 17.6 °F 86% 30.39 in 10.0 mi South 5.8 mph - N/A   Clear
1:55 AM 21.2 °F 16.4 °F 19.4 °F 93% 30.38 in 10.0 mi SSE 3.5 mph - N/A   Clear
2:15 AM 21.2 °F 14.9 °F 19.4 °F 93% 30.39 in 10.0 mi South 4.6 mph - N/A   Clear
2:35 AM 21.2 °F 13.6 °F 17.6 °F 86% 30.38 in 10.0 mi South 5.8 mph - N/A   Clear
2:55 AM 19.4 °F 10.4 °F 17.6 °F 93% 30.38 in 10.0 mi South 6.9 mph - N/A   Clear
3:15 AM 21.2 °F 12.6 °F 17.6 °F 86% 30.37 in 10.0 mi SSE 6.9 mph - N/A   Clear
3:55 AM 21.2 °F 12.6 °F 19.4 °F 93% 30.36 in - South 6.9 mph - N/A   Unknown
4:15 AM 21.2 °F 12.6 °F 19.4 °F 93% 30.36 in - SSE 6.9 mph - N/A   Unknown
4:35 AM 23.0 °F 13.9 °F 19.4 °F 86% 30.35 in 10.0 mi SSE 8.1 mph - N/A   Unknown
4:55 AM 21.2 °F 11.7 °F 19.4 °F 93% 30.35 in 10.0 mi SSE 8.1 mph - N/A   Unknown
5:15 AM 23.0 °F 13.1 °F 19.4 °F 86% 30.34 in 10.0 mi SSE 9.2 mph - N/A   Unknown
5:35 AM 23.0 °F 13.1 °F 21.2 °F 93% 30.33 in 10.0 mi SSE 9.2 mph - N/A   Clear
5:55 AM 24.8 °F 16.1 °F 21.2 °F 86% 30.33 in 10.0 mi South 8.1 mph - N/A   Clear
6:15 AM 23.0 °F 13.9 °F 21.2 °F 93% 30.32 in 10.0 mi SSE 8.1 mph - N/A   Clear
6:35 AM 23.0 °F 13.9 °F 19.4 °F 86% 30.32 in 10.0 mi SSE 8.1 mph - N/A   Clear
6:55 AM 21.2 °F 11.7 °F 19.4 °F 93% 30.31 in 10.0 mi SSE 8.1 mph - N/A   Clear
7:15 AM 19.4 °F 9.5 °F 19.4 °F 100% 30.31 in 10.0 mi SE 8.1 mph - N/A   Clear
7:35 AM 19.4 °F 9.5 °F 19.4 °F 100% 30.30 in 10.0 mi SE 8.1 mph - N/A   Unknown
7:55 AM 21.2 °F 11.7 °F 19.4 °F 93% 30.30 in 10.0 mi SE 8.1 mph - N/A   Unknown
8:15 AM 21.2 °F 13.6 °F 19.4 °F 93% 30.29 in 10.0 mi SE 5.8 mph - N/A   Unknown
8:35 AM 23.0 °F 15.8 °F 21.2 °F 93% 30.29 in 10.0 mi SSE 5.8 mph - N/A   Unknown
8:55 AM 26.6 °F 19.1 °F 23.0 °F 86% 30.28 in 10.0 mi SSE 6.9 mph - N/A   Clear
9:15 AM 28.4 °F 19.7 °F 23.0 °F 80% 30.27 in 10.0 mi SSE 9.2 mph - N/A   Clear
9:35 AM 30.2 °F 20.8 °F 23.0 °F 75% 30.27 in 10.0 mi South 11.5 mph - N/A   Clear
9:55 AM 32.0 °F 21.6 °F 24.8 °F 75% 30.27 in 10.0 mi South 15.0 mph - N/A   Clear
10:15 AM 35.6 °F 25.2 °F 24.8 °F 65% 30.26 in 10.0 mi South 18.4 mph - N/A   Clear
10:35 AM 37.4 °F 27.8 °F 24.8 °F 60% 30.24 in 10.0 mi South 17.3 mph - N/A   Clear
11:15 AM 41.0 °F 32.5 °F 23.0 °F 49% 30.21 in 10.0 mi South 17.3 mph 25.3 mph N/A   Clear
11:35 AM 44.6 °F 36.1 °F 19.4 °F 37% 30.20 in 10.0 mi SSE 21.9 mph 32.2 mph N/A   Clear
12:15 PM 46.4 °F 37.5 °F 17.6 °F 32% 30.19 in 10.0 mi South 27.6 mph 31.1 mph N/A   Clear
12:35 PM 46.4 °F 38.3 °F 17.6 °F 32% 30.18 in 10.0 mi SSE 23.0 mph 29.9 mph N/A   Clear
12:55 PM 48.2 °F - 15.8 °F 27% 30.16 in 10.0 mi South 24.2 mph 34.5 mph N/A   Clear
1:55 PM 50.0 °F - 14.0 °F 24% 30.09 in 10.0 mi South 25.3 mph 34.5 mph N/A   Clear
2:15 PM 50.0 °F - 15.8 °F 26% 30.07 in 10.0 mi South 24.2 mph 33.4 mph N/A   Clear
2:55 PM 51.8 °F - 15.8 °F 24% 30.04 in 10.0 mi SSE 28.8 mph 33.4 mph N/A   Clear
3:15 PM 53.6 °F - 15.8 °F 22% 30.02 in 10.0 mi South 27.6 mph 35.7 mph N/A   Clear
3:35 PM 53.6 °F - 15.8 °F 22% 30.00 in 10.0 mi SSE 27.6 mph 34.5 mph N/A   Clear
3:55 PM 53.6 °F - 15.8 °F 22% 29.98 in 10.0 mi SSE 27.6 mph 38.0 mph N/A   Clear
4:15 PM 53.6 °F - 15.8 °F 22% 29.97 in 10.0 mi SSE 26.5 mph 33.4 mph N/A   Clear
4:35 PM 53.6 °F - 15.8 °F 22% 29.96 in 10.0 mi SSE 25.3 mph 39.1 mph N/A   Clear
4:55 PM 53.6 °F - 15.8 °F 22% 29.95 in 10.0 mi SSE 24.2 mph 33.4 mph N/A   Clear
5:15 PM 53.6 °F - 15.8 °F 22% 29.94 in 10.0 mi South 24.2 mph 34.5 mph N/A   Clear
5:55 PM 53.6 °F - 15.8 °F 22% 29.93 in 10.0 mi South 27.6 mph 33.4 mph N/A   Clear
6:15 PM 51.8 °F - 17.6 °F 26% 29.93 in 10.0 mi South 18.4 mph 29.9 mph N/A   Clear
6:35 PM 51.8 °F - 17.6 °F 26% 29.91 in 10.0 mi South 21.9 mph 29.9 mph N/A   Clear
6:55 PM 50.0 °F - 17.6 °F 28% 29.90 in 10.0 mi SSE 17.3 mph 21.9 mph N/A   Clear
7:15 PM 48.2 °F - 17.6 °F 30% 29.90 in 10.0 mi SSE 9.2 mph - N/A   Clear
7:55 PM 44.6 °F 38.8 °F 17.6 °F 34% 29.87 in 10.0 mi SE 11.5 mph - N/A   Clear
8:15 PM 44.6 °F 38.8 °F 17.6 °F 34% 29.87 in 10.0 mi SE 11.5 mph - N/A   Clear